| time (UTC) | temp C | wind direction | speed KPH | gust KPH | rain 1hr cm | rain 24hr cm | rain mn cm | humidity % | barometer mb |
| 20260505200315 | 14 | 225 | 6.4 | 0.0 | 0.00 | 0.00 | 0.00 | 50 | 1006.4 |
| 20260505200107 | 14 | 225 | 9.7 | 0.0 | 0.00 | 0.00 | 0.00 | 50 | 1006.5 |
| 20260505195911 | 14 | 248 | 9.7 | 0.0 | 0.00 | 0.00 | 0.00 | 52 | 1006.4 |
| 20260505195713 | 14 | 248 | 3.2 | 0.0 | 0.00 | 0.00 | 0.00 | 51 | 1006.4 |
| 20260505195509 | 13 | 248 | 3.2 | 0.0 | 0.00 | 0.00 | 0.00 | 51 | 1006.4 |
| 20260505195313 | 13 | 248 | 6.4 | 0.0 | 0.00 | 0.00 | 0.00 | 52 | 1006.4 |
| 20260505195111 | 14 | 225 | 9.7 | 0.0 | 0.00 | 0.00 | 0.00 | 52 | 1006.4 |
| 20260505194908 | 14 | 248 | 0.0 | 0.0 | 0.00 | 0.00 | 0.00 | 51 | 1006.4 |
| 20260505194708 | 14 | 292 | 0.0 | 0.0 | 0.00 | 0.00 | 0.00 | 51 | 1006.4 |
| 20260505194509 | 15 | 270 | 0.0 | 0.0 | 0.00 | 0.00 | 0.00 | 50 | 1006.3 |
| 20260505194411 | 15 | 270 | 0.0 | 0.0 | 0.00 | 0.00 | 0.00 | 50 | 1006.3 |
| 20260505194210 | 15 | 270 | 0.0 | 0.0 | 0.00 | 0.00 | 0.00 | 49 | 1006.4 |
| 20260505194009 | 15 | 225 | 14.5 | 0.0 | 0.00 | 0.00 | 0.00 | 47 | 1006.3 |
| 20260505193808 | 15 | 270 | 0.0 | 0.0 | 0.00 | 0.00 | 0.00 | 49 | 1006.3 |
| 20260505193613 | 15 | 270 | 0.0 | 0.0 | 0.00 | 0.00 | 0.00 | 48 | 1006.3 |
| 20260505193413 | 15 | 248 | 0.0 | 0.0 | 0.00 | 0.00 | 0.00 | 47 | 1006.3 |
| 20260505193210 | 15 | 248 | 9.7 | 0.0 | 0.00 | 0.00 | 0.00 | 47 | 1006.2 |
| 20260505193012 | 15 | 248 | 8.0 | 0.0 | 0.00 | 0.00 | 0.00 | 48 | 1006.2 |
| 20260505192810 | 15 | 248 | 6.4 | 0.0 | 0.00 | 0.00 | 0.00 | 48 | 1006.2 |
| 20260505192610 | 15 | 248 | 6.4 | 0.0 | 0.00 | 0.00 | 0.00 | 48 | 1006.1 |
| 20260505192414 | 15 | 248 | 3.2 | 0.0 | 0.00 | 0.00 | 0.00 | 48 | 1006.0 |
| 20260505192210 | 15 | 225 | 17.7 | 0.0 | 0.00 | 0.00 | 0.00 | 49 | 1005.9 |
| 20260505192012 | 15 | 292 | 9.7 | 0.0 | 0.00 | 0.00 | 0.00 | 49 | 1006.0 |
| 20260505191813 | 15 | 225 | 11.3 | 0.0 | 0.00 | 0.00 | 0.00 | 49 | 1005.8 |
| 20260505191719 | 15 | 248 | 4.8 | 0.0 | 0.00 | 0.00 | 0.00 | 49 | 1005.8 |
| 20260505191414 | 15 | 248 | 12.9 | 0.0 | 0.00 | 0.00 | 0.00 | 50 | 1005.7 |
| 20260505191211 | 15 | 270 | 3.2 | 0.0 | 0.00 | 0.00 | 0.00 | 49 | 1005.8 |
| 20260505191010 | 15 | 248 | 8.0 | 0.0 | 0.00 | 0.00 | 0.00 | 49 | 1005.9 |
| 20260505190808 | 15 | 248 | 4.8 | 0.0 | 0.00 | 0.00 | 0.00 | 48 | 1005.8 |
| 20260505190608 | 15 | 315 | 6.4 | 0.0 | 0.00 | 0.00 | 0.00 | 48 | 1005.8 |
| 20260505190412 | 15 | 248 | 4.8 | 0.0 | 0.00 | 0.00 | 0.00 | 49 | 1005.8 |
| 20260505190107 | 15 | 270 | 0.0 | 0.0 | 0.00 | 0.00 | 0.00 | 49 | 1005.8 |
| 20260505185927 | 15 | 248 | 6.4 | 0.0 | 0.00 | 0.00 | 0.00 | 49 | 1005.7 |
| 20260505185612 | 15 | 248 | 6.4 | 0.0 | 0.00 | 0.00 | 0.00 | 49 | 1005.7 |
| 20260505185409 | 15 | 225 | 12.9 | 0.0 | 0.00 | 0.00 | 0.00 | 50 | 1005.7 |
| 20260505185212 | 15 | 270 | 0.0 | 0.0 | 0.00 | 0.00 | 0.00 | 50 | 1005.7 |
| 20260505185010 | 15 | 248 | 4.8 | 0.0 | 0.00 | 0.00 | 0.00 | 50 | 1005.7 |
| 20260505184912 | 14 | 270 | 9.7 | 0.0 | 0.00 | 0.00 | 0.00 | 51 | 1005.6 |
| 20260505184712 | 14 | 248 | 6.4 | 0.0 | 0.00 | 0.00 | 0.00 | 52 | 1005.5 |
| 20260505184407 | 13 | 248 | 8.0 | 0.0 | 0.00 | 0.00 | 0.00 | 52 | 1005.5 |
| 20260505184207 | 13 | 202 | 6.4 | 0.0 | 0.00 | 0.00 | 0.00 | 55 | 1005.5 |
| 20260505184010 | 13 | 270 | 11.3 | 0.0 | 0.00 | 0.00 | 0.00 | 55 | 1005.4 |
| 20260505183812 | 13 | 270 | 3.2 | 0.0 | 0.00 | 0.00 | 0.00 | 55 | 1005.4 |
| 20260505183611 | 13 | 248 | 6.4 | 0.0 | 0.00 | 0.00 | 0.00 | 55 | 1005.5 |
| 20260505183408 | 13 | 248 | 6.4 | 0.0 | 0.00 | 0.00 | 0.00 | 54 | 1005.4 |
| 20260505183211 | 13 | 270 | 0.0 | 0.0 | 0.00 | 0.00 | 0.00 | 55 | 1005.5 |
| 20260505182910 | 13 | 248 | 8.0 | 0.0 | 0.00 | 0.00 | 0.00 | 55 | 1005.6 |
| 20260505182709 | 14 | 248 | 6.4 | 0.0 | 0.00 | 0.00 | 0.00 | 54 | 1005.5 |
| 20260505182510 | 14 | 270 | 0.0 | 0.0 | 0.00 | 0.00 | 0.00 | 54 | 1005.5 |
| 20260505182310 | 14 | 248 | 4.8 | 0.0 | 0.00 | 0.00 | 0.00 | 54 | 1005.6 |
| 20260505182111 | 14 | 292 | 6.4 | 0.0 | 0.00 | 0.00 | 0.00 | 54 | 1005.5 |
| 20260505181910 | 14 | 248 | 3.2 | 0.0 | 0.00 | 0.00 | 0.00 | 53 | 1005.5 |
| 20260505181713 | 15 | 270 | 0.0 | 0.0 | 0.00 | 0.00 | 0.00 | 53 | 1005.5 |
| 20260505181508 | 15 | 270 | 0.0 | 0.0 | 0.00 | 0.00 | 0.00 | 52 | 1005.6 |
| 20260505181309 | 15 | 338 | 3.2 | 0.0 | 0.00 | 0.00 | 0.00 | 52 | 1005.6 |
| 20260505181112 | 15 | 338 | 3.2 | 0.0 | 0.00 | 0.00 | 0.00 | 52 | 1005.5 |
| 20260505180908 | 14 | 248 | 6.4 | 0.0 | 0.00 | 0.00 | 0.00 | 52 | 1005.5 |
| 20260505180710 | 15 | 248 | 8.0 | 0.0 | 0.00 | 0.00 | 0.00 | 54 | 1005.5 |
| 20260505180608 | 15 | 248 | 6.4 | 0.0 | 0.00 | 0.00 | 0.00 | 54 | 1005.4 |
| 20260505180415 | 15 | 292 | 0.0 | 0.0 | 0.00 | 0.00 | 0.00 | 53 | 1005.5 |
| 20260505180208 | 15 | 248 | 3.2 | 0.0 | 0.00 | 0.00 | 0.00 | 53 | 1005.4 |
| 20260505175927 | 14 | 248 | 9.7 | 0.0 | 0.00 | 0.00 | 0.00 | 54 | 1005.5 |
| 20260505175610 | 14 | 248 | 9.7 | 0.0 | 0.00 | 0.00 | 0.00 | 54 | 1005.4 |
| 20260505175416 | 14 | 270 | 3.2 | 0.0 | 0.00 | 0.00 | 0.00 | 54 | 1005.4 |
| 20260505175316 | 15 | 248 | 3.2 | 0.0 | 0.00 | 0.00 | 0.00 | 54 | 1005.3 |
| 20260505175118 | 15 | 270 | 0.0 | 0.0 | 0.00 | 0.00 | 0.00 | 54 | 1005.4 |
| 20260505174911 | 15 | 270 | 0.0 | 0.0 | 0.00 | 0.00 | 0.00 | 54 | 1005.4 |
| 20260505174713 | 15 | 270 | 0.0 | 0.0 | 0.00 | 0.00 | 0.00 | 54 | 1005.4 |
| 20260505174508 | 15 | 270 | 0.0 | 0.0 | 0.00 | 0.00 | 0.00 | 54 | 1005.3 |
| 20260505174310 | 15 | 248 | 0.0 | 0.0 | 0.00 | 0.00 | 0.00 | 54 | 1005.5 |
| 20260505174110 | 15 | 248 | 0.0 | 0.0 | 0.00 | 0.00 | 0.00 | 54 | 1005.4 |
| 20260505173811 | 14 | 248 | 11.3 | 0.0 | 0.00 | 0.00 | 0.00 | 55 | 1005.4 |
| 20260505173607 | 14 | 248 | 1.6 | 0.0 | 0.00 | 0.00 | 0.00 | 55 | 1005.4 |
| 20260505173409 | 14 | 248 | 1.6 | 0.0 | 0.00 | 0.00 | 0.00 | 55 | 1005.4 |
| 20260505173208 | 14 | 270 | 1.6 | 0.0 | 0.00 | 0.00 | 0.00 | 56 | 1005.4 |
| 20260505172908 | 14 | 248 | 1.6 | 0.0 | 0.00 | 0.00 | 0.00 | 56 | 1005.3 |
| 20260505172706 | 14 | 248 | 1.6 | 0.0 | 0.00 | 0.00 | 0.00 | 56 | 1005.4 |
| 20260505172508 | 14 | 248 | 1.6 | 0.0 | 0.00 | 0.00 | 0.00 | 56 | 1005.4 |
| 20260505172311 | 15 | 248 | 3.2 | 0.0 | 0.00 | 0.00 | 0.00 | 56 | 1005.4 |
| 20260505172108 | 15 | 248 | 4.8 | 0.0 | 0.00 | 0.00 | 0.00 | 56 | 1005.4 |
| 20260505171908 | 15 | 248 | 1.6 | 0.0 | 0.00 | 0.00 | 0.00 | 54 | 1005.4 |
| 20260505171708 | 15 | 270 | 0.0 | 0.0 | 0.00 | 0.00 | 0.00 | 54 | 1005.4 |
| 20260505171407 | 15 | 248 | 4.8 | 0.0 | 0.00 | 0.00 | 0.00 | 55 | 1005.4 |
| 20260505171210 | 15 | 248 | 3.2 | 0.0 | 0.00 | 0.00 | 0.00 | 53 | 1005.4 |
| 20260505171008 | 15 | 248 | 0.0 | 0.0 | 0.00 | 0.00 | 0.00 | 54 | 1005.3 |
| 20260505170808 | 15 | 248 | 0.0 | 0.0 | 0.00 | 0.00 | 0.00 | 54 | 1005.4 |
| 20260505170611 | 15 | 292 | 0.0 | 0.0 | 0.00 | 0.00 | 0.00 | 54 | 1005.4 |
| 20260505170411 | 15 | 292 | 0.0 | 0.0 | 0.00 | 0.00 | 0.00 | 53 | 1005.4 |
| 20260505170210 | 15 | 270 | 0.0 | 0.0 | 0.00 | 0.00 | 0.00 | 53 | 1005.3 |
| 20260505165928 | 15 | 248 | 0.0 | 0.0 | 0.00 | 0.00 | 0.00 | 52 | 1005.4 |
| 20260505165608 | 15 | 248 | 0.0 | 0.0 | 0.00 | 0.00 | 0.00 | 52 | 1005.4 |
| 20260505165407 | 15 | 270 | 4.8 | 0.0 | 0.00 | 0.00 | 0.00 | 51 | 1005.3 |
| 20260505165213 | 15 | 248 | 0.0 | 0.0 | 0.00 | 0.00 | 0.00 | 51 | 1005.3 |
| 20260505165007 | 15 | 292 | 0.0 | 0.0 | 0.00 | 0.00 | 0.00 | 51 | 1005.4 |
| 20260505164811 | 16 | 270 | 0.0 | 0.0 | 0.00 | 0.00 | 0.00 | 49 | 1005.4 |
| 20260505164610 | 16 | 248 | 0.0 | 0.0 | 0.00 | 0.00 | 0.00 | 48 | 1005.4 |
| 20260505164406 | 16 | 248 | 0.0 | 0.0 | 0.00 | 0.00 | 0.00 | 48 | 1005.4 |
| 20260505164206 | 16 | 292 | 0.0 | 0.0 | 0.00 | 0.00 | 0.00 | 46 | 1005.4 |
| 20260505164006 | 16 | 292 | 0.0 | 0.0 | 0.00 | 0.00 | 0.00 | 46 | 1005.4 |
| 20260505163807 | 17 | 292 | 0.0 | 0.0 | 0.00 | 0.00 | 0.00 | 45 | 1005.4 |
| 20260505163611 | 17 | 248 | 0.0 | 0.0 | 0.00 | 0.00 | 0.00 | 45 | 1005.3 |
| 20260505163411 | 17 | 338 | 0.0 | 0.0 | 0.00 | 0.00 | 0.00 | 42 | 1005.4 |
| 20260505163208 | 17 | 292 | 0.0 | 0.0 | 0.00 | 0.00 | 0.00 | 42 | 1005.4 |
| 20260505163011 | 17 | 248 | 0.0 | 0.0 | 0.00 | 0.00 | 0.00 | 42 | 1005.5 |
| 20260505162805 | 17 | 248 | 0.0 | 0.0 | 0.00 | 0.00 | 0.00 | 42 | 1005.4 |
| 20260505162706 | 17 | 248 | 0.0 | 0.0 | 0.00 | 0.00 | 0.00 | 42 | 1005.4 |
| 20260505162507 | 17 | 248 | 0.0 | 0.0 | 0.00 | 0.00 | 0.00 | 42 | 1005.5 |
| 20260505162311 | 18 | 248 | 3.2 | 0.0 | 0.00 | 0.00 | 0.00 | 41 | 1005.5 |
| 20260505162112 | -5 | 248 | 0.0 | 0.0 | 0.00 | 0.00 | 0.00 | 41 | 1005.4 |
| 20260505161907 | 18 | 248 | 0.0 | 0.0 | 0.00 | 0.00 | 0.00 | 40 | 1005.5 |
| 20260505161708 | 19 | 248 | 0.0 | 0.0 | 0.00 | 0.00 | 0.00 | 37 | 1005.4 |
| 20260505161510 | 19 | 202 | 0.0 | 0.0 | 0.00 | 0.00 | 0.00 | 37 | 1005.3 |
| 20260505161407 | 19 | 202 | 0.0 | 0.0 | 0.00 | 0.00 | 0.00 | 37 | 1005.3 |
| 20260505161207 | 19 | 202 | 0.0 | 0.0 | 0.00 | 0.00 | 0.00 | 36 | 1005.4 |
| 20260505161007 | 20 | 202 | 0.0 | 0.0 | 0.00 | 0.00 | 0.00 | 36 | 1005.5 |
| 20260505160807 | 20 | 0 | 0.0 | 0.0 | 0.00 | 0.00 | 0.00 | 35 | 1005.4 |
| 20260505160610 | 20 | 90 | 0.0 | 0.0 | 0.00 | 0.00 | 0.00 | 35 | 1005.4 |
| 20260505160411 | 20 | 338 | 0.0 | 0.0 | 0.00 | 0.00 | 0.00 | 35 | 1005.5 |
| 20260505160212 | 20 | 338 | 0.0 | 0.0 | 0.00 | 0.00 | 0.00 | 34 | 1005.5 |
| 20260505153208 | 20 | 315 | 8.0 | 0.0 | 0.00 | 0.00 | 0.00 | 36 | 1005.4 |
| 20260505153007 | 20 | 135 | 9.7 | 0.0 | 0.00 | 0.00 | 0.00 | 36 | 1005.4 |
| 20260505152808 | 20 | 135 | 9.7 | 0.0 | 0.00 | 0.00 | 0.00 | 36 | 1005.6 |
| 20260505152607 | 20 | 248 | 0.0 | 0.0 | 0.00 | 0.00 | 0.00 | 37 | 1005.6 |
| 20260505152408 | 20 | 248 | 0.0 | 0.0 | 0.00 | 0.00 | 0.00 | 37 | 1005.5 |
| 20260505152208 | 20 | 158 | 0.0 | 0.0 | 0.00 | 0.00 | 0.00 | 37 | 1005.5 |
| 20260505151908 | 20 | 0 | 0.0 | 0.0 | 0.00 | 0.00 | 0.00 | 37 | 1005.6 |
| 20260505151708 | 20 | 0 | 0.0 | 0.0 | 0.00 | 0.00 | 0.00 | 37 | 1005.5 |
| 20260505151510 | 20 | 112 | 1.6 | 0.0 | 0.00 | 0.00 | 0.00 | 37 | 1005.5 |
| 20260505151308 | 19 | 112 | 1.6 | 0.0 | 0.00 | 0.00 | 0.00 | 37 | 1005.4 |
| 20260505151107 | 19 | 225 | 12.9 | 0.0 | 0.00 | 0.00 | 0.00 | 37 | 1005.4 |
| 20260505150908 | 20 | 135 | 4.8 | 0.0 | 0.00 | 0.00 | 0.00 | 37 | 1005.4 |
| 20260505150707 | 20 | 248 | 4.8 | 0.0 | 0.00 | 0.00 | 0.00 | 37 | 1005.5 |
| 20260505150515 | 20 | 248 | 4.8 | 0.0 | 0.00 | 0.00 | 0.00 | 36 | 1005.5 |
| 20260505150309 | 20 | 202 | 0.0 | 0.0 | 0.00 | 0.00 | 0.00 | 36 | 1005.5 |
| 20260505150111 | 20 | 270 | 0.0 | 0.0 | 0.00 | 0.00 | 0.00 | 36 | 1005.7 |
| 20260505140608 | 21 | 158 | 0.0 | 0.0 | 0.00 | 0.00 | 0.00 | 35 | 1005.5 |
| 20260505140408 | 21 | 292 | 9.7 | 0.0 | 0.00 | 0.00 | 0.00 | 35 | 1005.5 |
| 20260505140210 | 21 | 292 | 9.7 | 0.0 | 0.00 | 0.00 | 0.00 | 35 | 1005.4 |
| 20260505130240 | 20 | 292 | 0.0 | 0.0 | 0.00 | 0.00 | 0.00 | 34 | 1005.5 |
| 20260505125010 | 21 | 292 | 3.2 | 0.0 | 0.00 | 0.00 | 0.00 | 33 | 1005.4 |
| 20260505124812 | 21 | 292 | 3.2 | 0.0 | 0.00 | 0.00 | 0.00 | 33 | 1005.5 |
| 20260505124411 | 21 | 248 | 8.0 | 0.0 | 0.00 | 0.00 | 0.00 | 33 | 1005.5 |
| 20260505124208 | 21 | 248 | 6.4 | 0.0 | 0.00 | 0.00 | 0.00 | 32 | 1005.4 |
| 20260505124009 | 21 | 248 | 4.8 | 0.0 | 0.00 | 0.00 | 0.00 | 32 | 1005.5 |
| 20260505123811 | 22 | 248 | 8.0 | 0.0 | 0.00 | 0.00 | 0.00 | 32 | 1005.4 |
| 20260505123608 | 22 | 270 | 0.0 | 0.0 | 0.00 | 0.00 | 0.00 | 32 | 1005.4 |
| 20260505123421 | 22 | 248 | 0.0 | 0.0 | 0.00 | 0.00 | 0.00 | 32 | 1005.4 |
| 20260505123209 | 22 | 158 | 0.0 | 0.0 | 0.00 | 0.00 | 0.00 | 32 | 1005.5 |
| 20260505123015 | 22 | 315 | 0.0 | 0.0 | 0.00 | 0.00 | 0.00 | 32 | 1005.5 |
| 20260505122807 | 22 | 315 | 0.0 | 0.0 | 0.00 | 0.00 | 0.00 | 32 | 1005.5 |
| 20260505122611 | 22 | 270 | 0.0 | 0.0 | 0.00 | 0.00 | 0.00 | 32 | 1005.5 |
| 20260505122410 | 22 | 112 | 0.0 | 0.0 | 0.00 | 0.00 | 0.00 | 32 | 1005.5 |
| 20260505122208 | 22 | 270 | 0.0 | 0.0 | 0.00 | 0.00 | 0.00 | 31 | 1005.5 |
| 20260505122012 | 22 | 270 | 0.0 | 0.0 | 0.00 | 0.00 | 0.00 | 31 | 1005.4 |
| 20260505121812 | 22 | 112 | 0.0 | 0.0 | 0.00 | 0.00 | 0.00 | 31 | 1005.5 |
| 20260505121610 | 22 | 112 | 0.0 | 0.0 | 0.00 | 0.00 | 0.00 | 31 | 1005.5 |
| 20260505121415 | 22 | 90 | 3.2 | 0.0 | 0.00 | 0.00 | 0.00 | 31 | 1005.5 |
| 20260505121209 | 22 | 68 | 0.0 | 0.0 | 0.00 | 0.00 | 0.00 | 31 | 1005.4 |
| 20260505121010 | 22 | 45 | 4.8 | 0.0 | 0.00 | 0.00 | 0.00 | 31 | 1005.4 |
| 20260505120813 | 22 | 45 | 0.0 | 0.0 | 0.00 | 0.00 | 0.00 | 31 | 1005.5 |
| 20260505120610 | 22 | 45 | 0.0 | 0.0 | 0.00 | 0.00 | 0.00 | 31 | 1005.6 |
| 20260505120406 | 22 | 270 | 0.0 | 0.0 | 0.00 | 0.00 | 0.00 | 31 | 1005.4 |
| 20260505120210 | 22 | 270 | 0.0 | 0.0 | 0.00 | 0.00 | 0.00 | 31 | 1005.5 |
| 20260505120011 | 22 | 338 | 0.0 | 0.0 | 0.00 | 0.00 | 0.00 | 31 | 1005.5 |
| 20260505115812 | 22 | 90 | 6.4 | 0.0 | 0.00 | 0.00 | 0.00 | 31 | 1005.6 |
| 20260505115613 | 22 | 45 | 0.0 | 0.0 | 0.00 | 0.00 | 0.00 | 30 | 1005.6 |
| 20260505115411 | 22 | 22 | 4.8 | 0.0 | 0.00 | 0.00 | 0.00 | 30 | 1005.7 |
| 20260505115207 | 23 | 45 | 0.0 | 0.0 | 0.00 | 0.00 | 0.00 | 30 | 1005.6 |
| 20260505115111 | 23 | 45 | 0.0 | 0.0 | 0.00 | 0.00 | 0.00 | 30 | 1005.7 |
| 20260505114907 | 23 | 338 | 6.4 | 0.0 | 0.00 | 0.00 | 0.00 | 30 | 1005.7 |
| 20260505114712 | 23 | 315 | 9.7 | 0.0 | 0.00 | 0.00 | 0.00 | 30 | 1005.7 |
| 20260505114510 | 23 | 225 | 91.7 | 0.0 | 0.00 | 0.00 | 0.00 | 31 | 1005.8 |
| 20260505114307 | 22 | 248 | 0.0 | 0.0 | 0.00 | 0.00 | 0.00 | 31 | 1005.8 |
| 20260505114108 | 22 | 338 | 4.8 | 0.0 | 0.00 | 0.00 | 0.00 | 31 | 1006.0 |
| 20260505113912 | 22 | 68 | 0.0 | 0.0 | 0.00 | 0.00 | 0.00 | 31 | 1005.9 |
| 20260505113610 | 22 | 45 | 3.2 | 0.0 | 0.00 | 0.00 | 0.00 | 31 | 1005.9 |
| 20260505113407 | 22 | 292 | 0.0 | 0.0 | 0.00 | 0.00 | 0.00 | 31 | 1005.9 |
| 20260505113211 | 22 | 292 | 0.0 | 0.0 | 0.00 | 0.00 | 0.00 | 31 | 1005.9 |
| 20260505112911 | 22 | 270 | 0.0 | 0.0 | 0.00 | 0.00 | 0.00 | 31 | 1006.1 |
| 20260505112711 | 22 | 292 | 0.0 | 0.0 | 0.00 | 0.00 | 0.00 | 31 | 1006.0 |
| 20260505112513 | 22 | 315 | 3.2 | 0.0 | 0.00 | 0.00 | 0.00 | 31 | 1006.0 |
| 20260505112210 | 22 | 315 | 3.2 | 0.0 | 0.00 | 0.00 | 0.00 | 30 | 1006.1 |
| 20260505112008 | 22 | 315 | 9.7 | 0.0 | 0.00 | 0.00 | 0.00 | 30 | 1006.0 |
| 20260505111810 | 22 | 315 | 9.7 | 0.0 | 0.00 | 0.00 | 0.00 | 30 | 1005.9 |
| 20260505111613 | 22 | 68 | 11.3 | 0.0 | 0.00 | 0.00 | 0.00 | 30 | 1005.9 |
| 20260505111407 | 22 | 68 | 11.3 | 0.0 | 0.00 | 0.00 | 0.00 | 30 | 1006.0 |
| 20260505111208 | 23 | 315 | 6.4 | 0.0 | 0.00 | 0.00 | 0.00 | 29 | 1006.0 |
| 20260505111010 | 23 | 315 | 6.4 | 0.0 | 0.00 | 0.00 | 0.00 | 29 | 1005.9 |
| 20260505110808 | 23 | 315 | 6.4 | 0.0 | 0.00 | 0.00 | 0.00 | 29 | 1005.8 |
| 20260505110610 | 23 | 315 | 17.7 | 0.0 | 0.00 | 0.00 | 0.00 | 29 | 1005.9 |
| 20260505110410 | 23 | 45 | 8.0 | 0.0 | 0.00 | 0.00 | 0.00 | 29 | 1005.9 |
| 20260505110212 | 23 | 45 | 8.0 | 0.0 | 0.00 | 0.00 | 0.00 | 29 | 1005.8 |
| 20260505102106 | 23 | 45 | 0.0 | 0.0 | 0.00 | 0.00 | 0.00 | 28 | 1005.8 |
| 20260505101906 | 23 | 338 | 3.2 | 0.0 | 0.00 | 0.00 | 0.00 | 28 | 1005.9 |
| 20260505101710 | 23 | 338 | 3.2 | 0.0 | 0.00 | 0.00 | 0.00 | 28 | 1005.9 |
| 20260505101510 | 23 | 0 | 6.4 | 0.0 | 0.00 | 0.00 | 0.00 | 28 | 1005.8 |
| 20260505101308 | 23 | 45 | 9.7 | 0.0 | 0.00 | 0.00 | 0.00 | 28 | 1005.8 |
| 20260505101210 | 23 | 45 | 9.7 | 0.0 | 0.00 | 0.00 | 0.00 | 28 | 1005.8 |
| 20260505101011 | 23 | 45 | 9.7 | 0.0 | 0.00 | 0.00 | 0.00 | 28 | 1005.7 |
| 20260505100808 | 23 | 45 | 9.7 | 0.0 | 0.00 | 0.00 | 0.00 | 28 | 1005.8 |
| 20260505100610 | 23 | 45 | 11.3 | 0.0 | 0.00 | 0.00 | 0.00 | 27 | 1005.9 |
| 20260505100407 | 23 | 0 | 6.4 | 0.0 | 0.00 | 0.00 | 0.00 | 27 | 1005.9 |
| 20260505100214 | 25 | 0 | 6.4 | 0.0 | 0.00 | 0.00 | 0.00 | 27 | 1005.6 |
| 20260505095906 | 25 | 68 | 9.7 | 0.0 | 0.00 | 0.00 | 0.00 | 27 | 1005.7 |
| 20260505095805 | 25 | 45 | 4.8 | 0.0 | 0.00 | 0.00 | 0.00 | 27 | 1005.7 |
| 20260505095607 | 25 | 45 | 4.8 | 0.0 | 0.00 | 0.00 | 0.00 | 27 | 1005.7 |
| 20260505095410 | 25 | 45 | 1.6 | 0.0 | 0.00 | 0.00 | 0.00 | 27 | 1005.7 |
| 20260505095210 | 25 | 22 | 6.4 | 0.0 | 0.00 | 0.00 | 0.00 | 27 | 1005.6 |
| 20260505095010 | 25 | 22 | 9.7 | 0.0 | 0.00 | 0.00 | 0.00 | 26 | 1005.7 |
| 20260505094808 | 25 | 22 | 9.7 | 0.0 | 0.00 | 0.00 | 0.00 | 26 | 1005.6 |
| 20260505094610 | 25 | 68 | 17.7 | 0.0 | 0.00 | 0.00 | 0.00 | 27 | 1005.6 |
| 20260505094407 | 25 | 68 | 9.7 | 0.0 | 0.00 | 0.00 | 0.00 | 27 | 1005.5 |
| 20260505094212 | 24 | 0 | 3.2 | 0.0 | 0.00 | 0.00 | 0.00 | 27 | 1005.5 |
| 20260505094008 | 24 | 135 | 0.0 | 0.0 | 0.00 | 0.00 | 0.00 | 27 | 1005.7 |
| 20260505093807 | 24 | 45 | 9.7 | 0.0 | 0.00 | 0.00 | 0.00 | 27 | 1005.7 |
| 20260505093607 | 24 | 90 | 0.0 | 0.0 | 0.00 | 0.00 | 0.00 | 27 | 1005.7 |
| 20260505093409 | 24 | 90 | 0.0 | 0.0 | 0.00 | 0.00 | 0.00 | 27 | 1005.7 |
| 20260505093212 | 24 | 90 | 0.0 | 0.0 | 0.00 | 0.00 | 0.00 | 27 | 1005.7 |
| 20260505093008 | 24 | 90 | 0.0 | 0.0 | 0.00 | 0.00 | 0.00 | 26 | 1005.5 |
| 20260505092915 | 24 | 90 | 0.0 | 0.0 | 0.00 | 0.00 | 0.00 | 26 | 1005.6 |
| 20260505092715 | 24 | 22 | 11.3 | 0.0 | 0.00 | 0.00 | 0.00 | 26 | 1005.7 |
| 20260505092507 | 24 | 45 | 9.7 | 0.0 | 0.00 | 0.00 | 0.00 | 26 | 1005.8 |
| 20260505092311 | 24 | 22 | 0.0 | 0.0 | 0.00 | 0.00 | 0.00 | 26 | 1005.8 |
| 20260505092108 | 25 | 22 | 0.0 | 0.0 | 0.00 | 0.00 | 0.00 | 26 | 1005.8 |
| 20260505091908 | 25 | 22 | 0.0 | 0.0 | 0.00 | 0.00 | 0.00 | 27 | 1006.0 |
| 20260505091710 | 25 | 22 | 0.0 | 0.0 | 0.00 | 0.00 | 0.00 | 27 | 1005.8 |
| 20260505091614 | 25 | 22 | 0.0 | 0.0 | 0.00 | 0.00 | 0.00 | 27 | 1005.9 |
| 20260505091408 | 25 | 112 | 6.4 | 0.0 | 0.00 | 0.00 | 0.00 | 27 | 1005.9 |
| 20260505091212 | 25 | 45 | 6.4 | 0.0 | 0.00 | 0.00 | 0.00 | 27 | 1005.9 |
| 20260505091008 | 25 | 45 | 6.4 | 0.0 | 0.00 | 0.00 | 0.00 | 26 | 1006.0 |
| 20260505090813 | 25 | 45 | 6.4 | 0.0 | 0.00 | 0.00 | 0.00 | 27 | 1006.0 |
| 20260505090607 | 24 | 22 | 0.0 | 0.0 | 0.00 | 0.00 | 0.00 | 28 | 1005.9 |
| 20260505090408 | 24 | 22 | 0.0 | 0.0 | 0.00 | 0.00 | 0.00 | 28 | 1005.8 |
| 20260505090207 | 24 | 22 | 0.0 | 0.0 | 0.00 | 0.00 | 0.00 | 28 | 1005.9 |
| 20260505085907 | 24 | 90 | 9.7 | 0.0 | 0.00 | 0.00 | 0.00 | 28 | 1005.9 |
| 20260505085705 | 24 | 112 | 3.2 | 0.0 | 0.00 | 0.00 | 0.00 | 28 | 1005.9 |
| 20260505085507 | 24 | 112 | 3.2 | 0.0 | 0.00 | 0.00 | 0.00 | 28 | 1005.9 |
| 20260505085312 | 24 | 112 | 3.2 | 0.0 | 0.00 | 0.00 | 0.00 | 28 | 1005.8 |
| 20260505085108 | 24 | 68 | 1.6 | 0.0 | 0.00 | 0.00 | 0.00 | 27 | 1005.9 |
| 20260505084907 | 23 | 68 | 1.6 | 0.0 | 0.00 | 0.00 | 0.00 | 28 | 1005.8 |
| 20260505084707 | 23 | 68 | 1.6 | 0.0 | 0.00 | 0.00 | 0.00 | 28 | 1005.8 |
| 20260505084408 | 23 | 68 | 1.6 | 0.0 | 0.00 | 0.00 | 0.00 | 29 | 1005.9 |
| 20260505084208 | 22 | 68 | 1.6 | 0.0 | 0.00 | 0.00 | 0.00 | 28 | 1005.8 |
| 20260505084008 | 22 | 45 | 0.0 | 0.0 | 0.00 | 0.00 | 0.00 | 28 | 1006.0 |
| 20260505083810 | 23 | 45 | 4.8 | 0.0 | 0.00 | 0.00 | 0.00 | 28 | 1006.0 |
| 20260505083608 | 23 | 90 | 0.0 | 0.0 | 0.00 | 0.00 | 0.00 | 28 | 1006.0 |
| 20260505083407 | 23 | 68 | 9.7 | 0.0 | 0.00 | 0.00 | 0.00 | 28 | 1006.0 |
| 20260505083207 | 23 | 45 | 9.7 | 0.0 | 0.00 | 0.00 | 0.00 | 28 | 1006.0 |
| 20260505082911 | 23 | 90 | 3.2 | 0.0 | 0.00 | 0.00 | 0.00 | 28 | 1006.1 |
| 20260505082712 | 23 | 45 | 1.6 | 0.0 | 0.00 | 0.00 | 0.00 | 28 | 1006.1 |
| 20260505082511 | 23 | 68 | 6.4 | 0.0 | 0.00 | 0.00 | 0.00 | 26 | 1006.1 |
| 20260505082310 | 23 | 338 | 0.0 | 0.0 | 0.00 | 0.00 | 0.00 | 26 | 1006.2 |
| 20260505082108 | 23 | 112 | 4.8 | 0.0 | 0.00 | 0.00 | 0.00 | 27 | 1006.2 |
| 20260505081908 | 23 | 68 | 4.8 | 0.0 | 0.00 | 0.00 | 0.00 | 27 | 1006.2 |
| 20260505081707 | 23 | 45 | 9.7 | 0.0 | 0.00 | 0.00 | 0.00 | 27 | 1006.2 |
| 20260505081308 | 23 | 68 | 4.8 | 0.0 | 0.00 | 0.00 | 0.00 | 27 | 1006.3 |
| 20260505081108 | 23 | 45 | 4.8 | 0.0 | 0.00 | 0.00 | 0.00 | 25 | 1006.3 |
| 20260505080912 | 24 | 68 | 6.4 | 0.0 | 0.00 | 0.00 | 0.00 | 25 | 1006.3 |
| 20260505080707 | 24 | 68 | 6.4 | 0.0 | 0.00 | 0.00 | 0.00 | 25 | 1006.4 |
| 20260505080510 | 24 | 90 | 3.2 | 0.0 | 0.00 | 0.00 | 0.00 | 27 | 1006.3 |
| 20260505080308 | 24 | 90 | 3.2 | 0.0 | 0.00 | 0.00 | 0.00 | 27 | 1006.2 |
| 20260505075908 | 23 | 90 | 3.2 | 0.0 | 0.00 | 0.00 | 0.00 | 28 | 1006.3 |
| 20260505075713 | 23 | 90 | 3.2 | 0.0 | 0.00 | 0.00 | 0.00 | 28 | 1006.5 |
| 20260505075507 | 23 | 45 | 11.3 | 0.0 | 0.00 | 0.00 | 0.00 | 27 | 1006.5 |
| 20260505075310 | 23 | 22 | 0.0 | 0.0 | 0.00 | 0.00 | 0.00 | 27 | 1006.3 |
| 20260505075108 | 23 | 22 | 0.0 | 0.0 | 0.00 | 0.00 | 0.00 | 28 | 1006.5 |
| 20260505074910 | 23 | 22 | 0.0 | 0.0 | 0.00 | 0.00 | 0.00 | 28 | 1006.5 |
| 20260505074809 | 23 | 22 | 0.0 | 0.0 | 0.00 | 0.00 | 0.00 | 28 | 1006.5 |
| 20260505074611 | 23 | 22 | 0.0 | 0.0 | 0.00 | 0.00 | 0.00 | 28 | 1006.6 |
| 20260505074411 | 23 | 45 | 11.3 | 0.0 | 0.00 | 0.00 | 0.00 | 28 | 1006.5 |
| 20260505074213 | 23 | 68 | 0.0 | 0.0 | 0.00 | 0.00 | 0.00 | 28 | 1006.6 |
| 20260505074008 | 23 | 68 | 0.0 | 0.0 | 0.00 | 0.00 | 0.00 | 28 | 1006.8 |
| 20260505073810 | 23 | 68 | 11.3 | 0.0 | 0.00 | 0.00 | 0.00 | 28 | 1006.7 |
| 20260505073607 | 23 | 45 | 8.0 | 0.0 | 0.00 | 0.00 | 0.00 | 28 | 1006.7 |
| 20260505073407 | 23 | 45 | 8.0 | 0.0 | 0.00 | 0.00 | 0.00 | 14 | 1006.7 |
| 20260505073213 | 22 | 45 | 8.0 | 0.0 | 0.00 | 0.00 | 0.00 | 29 | 1006.8 |
| 20260505073011 | 22 | 45 | 8.0 | 0.0 | 0.00 | 0.00 | 0.00 | 29 | 1006.8 |
| 20260505072808 | 22 | 112 | 0.0 | 0.0 | 0.00 | 0.00 | 0.00 | 29 | 1006.8 |
| 20260505072609 | 21 | 68 | 12.9 | 0.0 | 0.00 | 0.00 | 0.00 | 29 | 1006.8 |
| 20260505072410 | 21 | 68 | 12.9 | 0.0 | 0.00 | 0.00 | 0.00 | 29 | 1006.9 |
| 20260505072213 | 21 | 22 | 9.7 | 0.0 | 0.00 | 0.00 | 0.00 | 29 | 1007.0 |
| 20260505072008 | 21 | 22 | 9.7 | 0.0 | 0.00 | 0.00 | 0.00 | 30 | 1007.0 |
| 20260505071914 | 21 | 45 | 3.2 | 0.0 | 0.00 | 0.00 | 0.00 | 30 | 1007.0 |
| 20260505071712 | 21 | 45 | 3.2 | 0.0 | 0.00 | 0.00 | 0.00 | 30 | 1007.1 |
| 20260505071509 | 20 | 68 | 6.4 | 0.0 | 0.00 | 0.00 | 0.00 | 31 | 1007.1 |
| 20260505071307 | 20 | 338 | 16.1 | 0.0 | 0.00 | 0.00 | 0.00 | 31 | 1007.1 |
| 20260505071118 | 20 | 338 | 16.1 | 0.0 | 0.00 | 0.00 | 0.00 | 31 | 1007.2 |
| 20260505070908 | 20 | 22 | 6.4 | 0.0 | 0.00 | 0.00 | 0.00 | 33 | 1007.2 |
| 20260505070711 | 19 | 22 | 6.4 | 0.0 | 0.00 | 0.00 | 0.00 | 33 | 1007.3 |
| 20260505070612 | 19 | 292 | 0.0 | 0.0 | 0.00 | 0.00 | 0.00 | 32 | 1007.2 |
| 20260505070412 | 19 | 90 | 8.0 | 0.0 | 0.00 | 0.00 | 0.00 | 32 | 1007.4 |
| 20260505070211 | 20 | 68 | 0.0 | 0.0 | 0.00 | 0.00 | 0.00 | 31 | 1007.4 |
| 20260505070008 | 20 | 22 | 9.7 | 0.0 | 0.00 | 0.00 | 0.00 | 31 | 1007.4 |
| 20260505065806 | 20 | 22 | 9.7 | 0.0 | 0.00 | 0.00 | 0.00 | 31 | 1007.4 |
| 20260505065607 | 20 | 22 | 9.7 | 0.0 | 0.00 | 0.00 | 0.00 | 31 | 1007.4 |
| 20260505065406 | 20 | 22 | 9.7 | 0.0 | 0.00 | 0.00 | 0.00 | 31 | 1007.4 |
| 20260505065215 | 20 | 22 | 9.7 | 0.0 | 0.00 | 0.00 | 0.00 | 30 | 1007.4 |
| 20260505064911 | 21 | 22 | 9.7 | 0.0 | 0.00 | 0.00 | 0.00 | 30 | 1007.5 |
| 20260505064712 | 21 | 45 | 11.3 | 0.0 | 0.00 | 0.00 | 0.00 | 30 | 1007.5 |
| 20260505064407 | 21 | 338 | 4.8 | 0.0 | 0.00 | 0.00 | 0.00 | 31 | 1007.5 |
| 20260505064208 | 20 | 22 | 6.4 | 0.0 | 0.00 | 0.00 | 0.00 | 31 | 1007.5 |
| 20260505064010 | 20 | 45 | 4.8 | 0.0 | 0.00 | 0.00 | 0.00 | 31 | 1007.5 |
| 20260505063810 | 20 | 45 | 4.8 | 0.0 | 0.00 | 0.00 | 0.00 | 31 | 1007.6 |
| 20260505063612 | 20 | 22 | 8.0 | 0.0 | 0.00 | 0.00 | 0.00 | 31 | 1007.6 |
| 20260505063407 | 20 | 68 | 1.6 | 0.0 | 0.00 | 0.00 | 0.00 | 31 | 1007.6 |
| 20260505063209 | 20 | 22 | 8.0 | 0.0 | 0.00 | 0.00 | 0.00 | 31 | 1007.5 |
| 20260505063008 | 20 | 68 | 1.6 | 0.0 | 0.00 | 0.00 | 0.00 | 31 | 1007.6 |
| 20260505062807 | 20 | 45 | 8.0 | 0.0 | 0.00 | 0.00 | 0.00 | 32 | 1007.7 |
| 20260505062608 | 20 | 45 | 8.0 | 0.0 | 0.00 | 0.00 | 0.00 | 32 | 1007.6 |
| 20260505062408 | 20 | 112 | 14.5 | 0.0 | 0.00 | 0.00 | 0.00 | 36 | 1007.4 |
| 20260505062312 | 20 | 0 | 3.2 | 0.0 | 0.00 | 0.00 | 0.00 | 36 | 1007.4 |
| 20260505062110 | 19 | 135 | 0.0 | 0.0 | 0.00 | 0.00 | 0.00 | 38 | 1007.7 |
| 20260505061942 | 19 | 135 | 0.0 | 0.0 | 0.00 | 0.00 | 0.00 | 38 | 1007.7 |
| 20260505061708 | 18 | 90 | 0.0 | 0.0 | 0.00 | 0.00 | 0.00 | 39 | 1007.7 |
| 20260505061508 | 18 | 135 | 0.0 | 0.0 | 0.00 | 0.00 | 0.00 | 39 | 1007.6 |
| 20260505061310 | 17 | 68 | 0.0 | 0.0 | 0.00 | 0.00 | 0.00 | 39 | 1007.8 |
| 20260505061111 | 17 | 90 | 6.4 | 0.0 | 0.00 | 0.00 | 0.00 | 40 | 1007.7 |
| 20260505061012 | 16 | 315 | 0.0 | 0.0 | 0.00 | 0.00 | 0.00 | 39 | 1007.7 |
| 20260505060812 | 16 | 315 | 0.0 | 0.0 | 0.00 | 0.00 | 0.00 | 42 | 1007.7 |
| 20260505060607 | 16 | 270 | 0.0 | 0.0 | 0.00 | 0.00 | 0.00 | 44 | 1007.8 |
| 20260505060407 | 16 | 270 | 0.0 | 0.0 | 0.00 | 0.00 | 0.00 | 44 | 1008.0 |
| 20260505060207 | 16 | 270 | 0.0 | 0.0 | 0.00 | 0.00 | 0.00 | 43 | 1007.8 |
| 20260505060010 | 17 | 292 | 0.0 | 0.0 | 0.00 | 0.00 | 0.00 | 42 | 1007.8 |
| 20260505055810 | 17 | 292 | 0.0 | 0.0 | 0.00 | 0.00 | 0.00 | 43 | 1007.8 |
| 20260505055609 | 17 | 292 | 0.0 | 0.0 | 0.00 | 0.00 | 0.00 | 43 | 1007.8 |
| 20260505055307 | 17 | 0 | 0.0 | 0.0 | 0.00 | 0.00 | 0.00 | 42 | 1007.8 |
| 20260505055108 | 17 | 338 | 160.9 | 0.0 | 0.00 | 0.00 | 0.00 | 45 | 1007.8 |
| 20260505054911 | 16 | 112 | 1.6 | 0.0 | 0.00 | 0.00 | 0.00 | 45 | 1007.8 |
| 20260505054711 | 15 | 112 | 0.0 | 0.0 | 0.00 | 0.00 | 0.00 | 45 | 1007.8 |
| 20260505054513 | 15 | 292 | 1.6 | 0.0 | 0.00 | 0.00 | 0.00 | 52 | 1007.8 |
| 20260505054307 | 15 | 292 | 0.0 | 0.0 | 0.00 | 0.00 | 0.00 | 52 | 1007.8 |
| 20260505054210 | 15 | 292 | 0.0 | 0.0 | 0.00 | 0.00 | 0.00 | 52 | 1007.8 |
| 20260505054007 | 14 | 292 | 0.0 | 0.0 | 0.00 | 0.00 | 0.00 | 53 | 1007.8 |
| 20260505053810 | 14 | 248 | 0.0 | 0.0 | 0.00 | 0.00 | 0.00 | 53 | 1007.8 |
| 20260505053612 | 14 | 248 | 0.0 | 0.0 | 0.00 | 0.00 | 0.00 | 53 | 1007.7 |
| 20260505053409 | 14 | 248 | 0.0 | 0.0 | 0.00 | 0.00 | 0.00 | 53 | 1007.7 |
| 20260505053211 | 14 | 292 | 0.0 | 0.0 | 0.00 | 0.00 | 0.00 | 53 | 1007.7 |
| 20260505053008 | 13 | 338 | 160.9 | 0.0 | 0.00 | 0.00 | 0.00 | 53 | 1007.7 |
| 20260505052810 | 13 | 292 | 0.0 | 0.0 | 0.00 | 0.00 | 0.00 | 53 | 1007.7 |
| 20260505052609 | 13 | 270 | 0.0 | 0.0 | 0.00 | 0.00 | 0.00 | 51 | 1007.8 |
| 20260505052408 | 13 | 270 | 0.0 | 0.0 | 0.00 | 0.00 | 0.00 | 51 | 1007.8 |
| 20260505052206 | 13 | 270 | 0.0 | 0.0 | 0.00 | 0.00 | 0.00 | 51 | 1007.8 |
| 20260505052010 | 13 | 270 | 0.0 | 0.0 | 0.00 | 0.00 | 0.00 | 51 | 1007.8 |
| 20260505051811 | 13 | 270 | 0.0 | 0.0 | 0.00 | 0.00 | 0.00 | 51 | 1007.8 |
| 20260505051612 | 13 | 292 | 0.0 | 0.0 | 0.00 | 0.00 | 0.00 | 50 | 1007.8 |
| 20260505051416 | 13 | 338 | 0.0 | 0.0 | 0.00 | 0.00 | 0.00 | 50 | 1007.8 |
| 20260505051207 | 13 | 248 | 0.0 | 0.0 | 0.00 | 0.00 | 0.00 | 50 | 1007.8 |
| 20260505051016 | 13 | 270 | 0.0 | 0.0 | 0.00 | 0.00 | 0.00 | 50 | 1007.8 |
| 20260505050810 | 13 | 270 | 0.0 | 0.0 | 0.00 | 0.00 | 0.00 | 50 | 1007.8 |
| 20260505050612 | 13 | 225 | 0.0 | 0.0 | 0.00 | 0.00 | 0.00 | 47 | 1007.9 |
| 20260505050407 | 12 | 315 | 3.2 | 0.0 | 0.00 | 0.00 | 0.00 | 50 | 1007.8 |
| 20260505050215 | 12 | 248 | 0.0 | 0.0 | 0.00 | 0.00 | 0.00 | 50 | 1007.8 |
| 20260505041712 | 14 | 270 | 11.3 | 0.0 | 0.00 | 0.00 | 0.00 | 39 | 1008.4 |
| 20260505041510 | 14 | 248 | 8.0 | 0.0 | 0.00 | 0.00 | 0.00 | 39 | 1008.4 |
| 20260505041307 | 14 | 270 | 6.4 | 0.0 | 0.00 | 0.00 | 0.00 | 38 | 1008.3 |
| 20260505041112 | 14 | 248 | 3.2 | 0.0 | 0.00 | 0.00 | 0.00 | 39 | 1008.3 |
| 20260505040910 | 14 | 248 | 8.0 | 0.0 | 0.00 | 0.00 | 0.00 | 39 | 1008.4 |
| 20260505040708 | 14 | 248 | 17.7 | 0.0 | 0.00 | 0.00 | 0.00 | 38 | 1008.3 |
| 20260505040508 | 14 | 248 | 25.7 | 0.0 | 0.00 | 0.00 | 0.00 | 39 | 1008.3 |